This is the latest recevied weather packets stored in our database for station/object G4KVI. If no packets are shown the sender has not sent any weather packets the latest 10 day(s).
| Time | Temp. | Humidity | Pressure | Rain* | Wind** | Luminosity | Snow |
|---|---|---|---|---|---|---|---|
| 1787384404 | 15° C | 69% | 1025.6 hPa | 0 mm | - | 254 W/m² | - |
| 1787384104 | 15° C | 70% | 1025.6 hPa | 0 mm | - | 239 W/m² | - |
| 1787383804 | 14.44° C | 72% | 1025.6 hPa | 0 mm | - | 226 W/m² | - |
| 1787383504 | 14.44° C | 72% | 1025.7 hPa | 0 mm | - | 209 W/m² | - |
| 1787383204 | 14.44° C | 72% | 1025.5 hPa | 0 mm | - | 170 W/m² | - |
| 1787382904 | 13.89° C | 76% | 1025.5 hPa | 0 mm | - | 137 W/m² | - |
| 1787382604 | 13.89° C | 75% | 1025.3 hPa | 0 mm | - | 116 W/m² | - |
| 1787382304 | 13.89° C | 74% | 1025.3 hPa | 0 mm | - | 101 W/m² | - |
| 1787382004 | 14.44° C | 74% | 1025.2 hPa | 0 mm | - | 94 W/m² | - |
| 1787381704 | 13.89° C | 76% | 1025 hPa | 0 mm | - | 91 W/m² | - |
| 1787381404 | 13.89° C | 78% | 1024.9 hPa | 0 mm | - | 93 W/m² | - |
| 1787381104 | 13.33° C | 80% | 1025.1 hPa | 0 mm | - | 91 W/m² | - |
| 1787380804 | 12.78° C | 80% | 1025.2 hPa | 0 mm | - | 91 W/m² | - |
| 1787380504 | 12.78° C | 81% | 1024.7 hPa | 0 mm | - | 89 W/m² | - |
| 1787380204 | 12.22° C | 86% | 1024.9 hPa | 0 mm | - | 85 W/m² | - |
| 1787379904 | 11.67° C | 90% | 1025 hPa | 0 mm | - | 80 W/m² | - |
| 1787379604 | 11.11° C | 92% | 1024.7 hPa | 0 mm | - | 75 W/m² | - |
| 1787379304 | 10.56° C | 93% | 1024.8 hPa | 0 mm | - | 68 W/m² | - |
| 1787379004 | 10° C | 93% | 1024.5 hPa | 0 mm | - | 62 W/m² | - |
| 1787378704 | 10° C | 94% | 1024.4 hPa | 0 mm | - | 55 W/m² | - |
| 1787378404 | 9.44° C | 94% | 1024.5 hPa | 0 mm | - | 49 W/m² | - |
| 1787378104 | 9.44° C | 95% | 1024.3 hPa | 0 mm | - | 42 W/m² | - |
| 1787377804 | 9.44° C | 95% | 1024.2 hPa | 0 mm | - | 36 W/m² | - |
| 1787377504 | 8.89° C | 95% | 1024.3 hPa | 0 mm | - | 30 W/m² | - |
| 1787377204 | 7.78° C | 95% | 1024.4 hPa | 0 mm | - | 24 W/m² | - |
* Rain latest hour (hover to see other rain measurements)
** Current wind speed in m/s (hover to see current wind gust speed)